timestamp,surface_pressure_avg,surface_temp_avg,battery_voltage,lat,long
2022-06-22 00:09:01+00:00,201.0898,13.8,12.01,47.84626,-54.09684
2022-06-22 00:19:00+00:00,203.0314,13.98,12.01,47.84626,-54.09684
2022-06-22 00:29:00+00:00,202.8332,14.16,12.01,47.84626,-54.09684
2022-06-22 00:39:00+00:00,203.6481,14.01,12.01,47.84626,-54.09684
2022-06-22 00:49:00+00:00,203.8065,13.8,12.01,47.84626,-54.09684
2022-06-22 00:59:00+00:00,205.5814,13.51,12.01,47.84626,-54.09684
2022-06-22 01:09:00+00:00,207.3864,13.49,12.01,47.84626,-54.09684
2022-06-22 01:19:01+00:00,208.2148,14.08,12.01,47.84626,-54.09684
2022-06-22 01:29:01+00:00,211.5331,14.0,12.01,47.84626,-54.09684
2022-06-22 01:39:01+00:00,220.4031,13.8,12.01,47.84626,-54.09684
2022-06-22 01:49:01+00:00,224.7615,13.9,12.01,47.84626,-54.09684
2022-06-22 01:59:01+00:00,223.6597,13.55,12.01,47.84626,-54.09684
2022-06-22 02:09:01+00:00,226.7614,12.45,12.01,47.84626,-54.09684
2022-06-22 02:19:01+00:00,231.1614,11.78,12.01,47.84626,-54.09684
2022-06-22 02:29:01+00:00,228.0914,12.05,12.01,47.84626,-54.09684
2022-06-22 02:39:01+00:00,226.2498,11.9,12.01,47.84626,-54.09684
2022-06-22 02:49:01+00:00,233.6014,11.99,12.01,47.84626,-54.09684
2022-06-22 02:59:01+00:00,237.7914,11.71,12.01,47.84626,-54.09684
2022-06-22 03:09:01+00:00,239.1465,11.6,12.01,47.84626,-54.09684
2022-06-22 03:19:00+00:00,246.2598,11.5,11.93,47.84626,-54.09684
2022-06-22 03:29:00+00:00,258.1614,11.4,11.93,47.84626,-54.09684
2022-06-22 03:39:00+00:00,261.5648,11.36,11.93,47.84626,-54.09684
2022-06-22 03:49:00+00:00,263.6747,11.4,11.93,47.84626,-54.09684
2022-06-22 03:59:00+00:00,276.1297,11.5,11.93,47.84626,-54.09684
2022-06-22 04:09:00+00:00,288.0397,11.34,11.93,47.84626,-54.09684
2022-06-22 04:19:01+00:00,289.3513,11.2,11.93,47.84626,-54.09684
2022-06-22 04:29:01+00:00,293.2513,11.39,11.93,47.84626,-54.09684
2022-06-22 04:39:01+00:00,303.678,11.3,11.93,47.84626,-54.09684
2022-06-22 04:49:01+00:00,308.1763,11.1,11.93,47.84626,-54.09684
2022-06-22 04:59:01+00:00,306.4531,11.05,11.93,47.84626,-54.09684
2022-06-22 05:09:01+00:00,309.1764,11.22,11.93,47.84626,-54.09684
2022-06-22 05:19:00+00:00,315.958,11.3,11.93,47.84626,-54.09684
2022-06-22 05:29:00+00:00,313.9797,11.3,11.93,47.84626,-54.09684
2022-06-22 05:39:00+00:00,311.9297,11.4,11.93,47.84626,-54.09684
2022-06-22 05:49:00+00:00,316.438,11.3,11.93,47.84626,-54.09684
2022-06-22 05:59:00+00:00,318.3213,11.2,11.93,47.84626,-54.09684
2022-06-22 06:09:00+00:00,315.4463,11.28,11.93,47.84626,-54.09684
2022-06-22 06:19:01+00:00,318.6613,11.28,11.93,47.84626,-54.09684
2022-06-22 06:29:01+00:00,321.288,11.2,11.93,47.84626,-54.09684
2022-06-22 06:39:01+00:00,320.8297,11.11,11.93,47.84626,-54.09684
2022-06-22 06:49:01+00:00,315.953,11.2,11.93,47.84626,-54.09684
2022-06-22 06:59:01+00:00,314.9864,11.1,11.93,47.84626,-54.09684
2022-06-22 07:09:01+00:00,314.7647,11.18,11.93,47.84626,-54.09684
2022-06-22 07:19:00+00:00,315.8997,11.19,11.93,47.84626,-54.09684
2022-06-22 07:29:00+00:00,317.9896,11.29,11.93,47.84626,-54.09684
2022-06-22 07:39:00+00:00,314.6464,11.25,11.93,47.84626,-54.09684
2022-06-22 07:49:00+00:00,312.148,11.22,11.93,47.84626,-54.09684
2022-06-22 07:59:00+00:00,309.6514,11.26,11.93,47.84626,-54.09684
2022-06-22 08:09:00+00:00,305.9297,11.47,11.93,47.84626,-54.09684
2022-06-22 08:19:00+00:00,297.0464,11.5,11.93,47.84626,-54.09684
2022-06-22 08:29:00+00:00,291.558,11.5,11.93,47.84626,-54.09684
2022-06-22 08:39:00+00:00,287.7198,11.52,11.93,47.84626,-54.09684
2022-06-22 08:49:00+00:00,278.0797,11.59,11.93,47.84626,-54.09684
2022-06-22 08:59:00+00:00,267.1331,11.63,11.93,47.84626,-54.09684
2022-06-22 09:09:00+00:00,261.8514,11.69,11.93,47.84626,-54.09684
2022-06-22 09:19:00+00:00,255.0897,11.72,12.01,47.84626,-54.09684
2022-06-22 09:29:00+00:00,244.808,11.77,12.01,47.84626,-54.09684
2022-06-22 09:39:00+00:00,238.1048,11.77,12.01,47.84626,-54.09684
2022-06-22 09:49:00+00:00,231.8331,11.8,12.01,47.84626,-54.09684
2022-06-22 09:59:00+00:00,222.9815,11.9,12.01,47.84626,-54.09684
2022-06-22 10:09:00+00:00,216.1781,11.9,12.01,47.84626,-54.09684
2022-06-22 10:19:00+00:00,214.9715,11.92,12.09,47.84626,-54.09684
2022-06-22 10:29:00+00:00,212.3098,12.0,12.09,47.84626,-54.09684
2022-06-22 10:39:00+00:00,209.2481,11.9,12.09,47.84626,-54.09684
2022-06-22 10:49:00+00:00,208.6431,11.9,12.09,47.84626,-54.09684
2022-06-22 10:59:00+00:00,206.8364,12.0,12.09,47.84626,-54.09684
2022-06-22 11:09:00+00:00,205.7914,11.9,12.09,47.84626,-54.09684
2022-06-22 11:19:01+00:00,204.4165,11.9,12.17,47.84626,-54.09684
2022-06-22 11:29:01+00:00,202.1681,11.9,12.17,47.84626,-54.09684
2022-06-22 11:39:01+00:00,203.1348,11.9,12.17,47.84626,-54.09684
2022-06-22 11:49:01+00:00,205.9781,11.91,12.17,47.84626,-54.09684
2022-06-22 11:59:01+00:00,203.3998,11.9,12.17,47.84626,-54.09684
2022-06-22 12:09:01+00:00,200.8048,11.8,12.17,47.84626,-54.09684
2022-06-22 12:19:00+00:00,203.7564,11.8,12.33,47.84626,-54.09684
2022-06-22 12:29:00+00:00,206.9448,11.8,12.33,47.84626,-54.09684
2022-06-22 12:39:00+00:00,203.7831,11.8,12.33,47.84626,-54.09684
2022-06-22 12:49:00+00:00,203.1615,11.8,12.33,47.84626,-54.09684
2022-06-22 12:59:00+00:00,208.7081,11.7,12.33,47.84626,-54.09684
2022-06-22 13:09:00+00:00,208.6314,11.7,12.33,47.84626,-54.09684
2022-06-22 13:19:00+00:00,206.5314,11.79,12.41,47.84626,-54.09684
2022-06-22 13:29:00+00:00,210.1481,11.79,12.41,47.84626,-54.09684
2022-06-22 13:39:00+00:00,214.6331,11.7,12.41,47.84626,-54.09684
2022-06-22 13:49:00+00:00,214.9749,11.77,12.41,47.84626,-54.09684
2022-06-22 13:59:00+00:00,219.3614,11.79,12.41,47.84626,-54.09684
2022-06-22 14:09:00+00:00,225.6547,11.78,12.41,47.84626,-54.09684
2022-06-22 14:19:00+00:00,226.1464,11.8,12.41,47.84626,-54.09684
2022-06-22 14:29:00+00:00,225.7998,11.8,12.41,47.84626,-54.09684
2022-06-22 14:39:00+00:00,231.9664,11.6,12.41,47.84626,-54.09684
2022-06-22 14:49:00+00:00,234.9814,11.63,12.41,47.84626,-54.09684
2022-06-22 14:59:00+00:00,234.9815,11.98,12.41,47.84626,-54.09684
2022-06-22 15:09:00+00:00,235.9848,12.21,12.41,47.84626,-54.09684
2022-06-22 15:19:00+00:00,240.1031,12.29,12.41,47.84626,-54.09684
2022-06-22 15:29:00+00:00,242.2014,12.32,12.41,47.84626,-54.09684
2022-06-22 15:39:00+00:00,243.4364,12.4,12.41,47.84626,-54.09684
2022-06-22 15:49:00+00:00,247.8997,12.3,12.41,47.84626,-54.09684
2022-06-22 15:59:00+00:00,255.4164,12.12,12.41,47.84626,-54.09684
2022-06-22 16:09:00+00:00,260.573,12.2,12.41,47.84626,-54.09684
2022-06-22 16:19:00+00:00,263.5714,12.2,12.41,47.84626,-54.09684
2022-06-22 16:29:00+00:00,271.0147,12.25,12.41,47.84626,-54.09684
2022-06-22 16:39:00+00:00,278.08299999999997,12.46,12.41,47.84626,-54.09684
2022-06-22 16:49:00+00:00,281.7131,12.5,12.41,47.84626,-54.09684
2022-06-22 16:59:00+00:00,286.3097,12.53,12.41,47.84626,-54.09684
2022-06-22 17:09:00+00:00,293.923,12.64,12.41,47.84626,-54.09684
2022-06-22 17:19:00+00:00,299.5114,12.8,12.33,47.84626,-54.09684
2022-06-22 17:29:00+00:00,300.9131,12.01,12.33,47.84626,-54.09684
2022-06-22 17:39:00+00:00,303.478,11.7,12.33,47.84626,-54.09684
2022-06-22 17:49:00+00:00,306.7063,11.77,12.33,47.84626,-54.09684
2022-06-22 17:59:00+00:00,310.5997,12.78,12.33,47.84626,-54.09684
2022-06-22 18:09:00+00:00,311.4963,12.07,12.33,47.84626,-54.09684
2022-06-22 18:19:01+00:00,310.4463,11.86,12.25,47.84626,-54.09684
2022-06-22 18:29:01+00:00,312.9246,11.89,12.25,47.84626,-54.09684
2022-06-22 18:39:01+00:00,315.623,12.7,12.25,47.84626,-54.09684
2022-06-22 18:49:01+00:00,317.0012,12.32,12.25,47.84626,-54.09684
2022-06-22 18:59:01+00:00,316.473,12.76,12.25,47.84626,-54.09684
2022-06-22 19:09:01+00:00,312.608,12.8,12.25,47.84626,-54.09684
2022-06-22 19:19:00+00:00,312.1462,12.98,12.25,47.84626,-54.09684
2022-06-22 19:29:00+00:00,313.8131,13.05,12.25,47.84626,-54.09684
2022-06-22 19:39:00+00:00,310.7112,13.34,12.25,47.84626,-54.09684
2022-06-22 19:49:00+00:00,307.248,13.57,12.25,47.84626,-54.09684
2022-06-22 19:59:00+00:00,310.578,13.85,12.25,47.84626,-54.09684
2022-06-22 20:09:00+00:00,309.788,14.09,12.25,47.84626,-54.09684
2022-06-22 20:19:01+00:00,305.7664,14.2,12.25,47.84626,-54.09684
2022-06-22 20:29:01+00:00,304.243,14.3,12.25,47.84626,-54.09684
2022-06-22 20:39:01+00:00,300.843,14.2,12.25,47.84626,-54.09684
2022-06-22 20:49:01+00:00,293.553,14.32,12.25,47.84626,-54.09684
2022-06-22 20:59:01+00:00,289.293,14.4,12.25,47.84626,-54.09684
2022-06-22 21:09:01+00:00,284.7947,14.4,12.25,47.84626,-54.09684
2022-06-22 21:19:00+00:00,275.3931,14.42,12.17,47.84626,-54.09684
2022-06-22 21:29:00+00:00,268.6114,14.48,12.17,47.84626,-54.09684
2022-06-22 21:39:00+00:00,264.8697,14.5,12.17,47.84626,-54.09684
2022-06-22 21:49:00+00:00,259.943,14.5,12.17,47.84626,-54.09684
2022-06-22 21:59:00+00:00,253.4948,14.71,12.17,47.84626,-54.09684
2022-06-22 22:09:00+00:00,249.0798,14.8,12.17,47.84626,-54.09684
2022-06-22 22:19:00+00:00,244.4248,14.8,12.17,47.84626,-54.09684
2022-06-22 22:29:00+00:00,237.1264,14.94,12.17,47.84626,-54.09684
2022-06-22 22:39:00+00:00,228.9431,15.19,12.17,47.84626,-54.09684
2022-06-22 22:49:00+00:00,226.2531,15.35,12.17,47.84626,-54.09684
2022-06-22 22:59:00+00:00,222.563,15.4,12.17,47.84626,-54.09684
2022-06-22 23:09:00+00:00,215.3848,15.67,12.17,47.84626,-54.09684
2022-06-22 23:19:00+00:00,212.9831,15.68,12.17,47.84626,-54.09684
2022-06-22 23:29:00+00:00,214.0914,15.6,12.17,47.84626,-54.09684
2022-06-22 23:39:00+00:00,213.5348,15.7,12.17,47.84626,-54.09684
2022-06-22 23:49:00+00:00,208.3414,15.8,12.17,47.84626,-54.09684
2022-06-22 23:59:00+00:00,206.8381,15.8,12.17,47.84626,-54.09684
